Temp_Advection
nan nan nan nan nan nan nan nan nan nan nan nan nan nan nan nan nan nan nan nan nan nan nan nan nan nan nan nan nan nan nan nan nan nan nan nan nan nan nan nan nan nan nan nan nan nan nan
nan 0 0 -0 -0 0 0 0 0 0 0 -0 -0 -0 0 -0 0 0 -0 -0 -0 -0 -0 -0 -1 -0 -1 -1 -0 0 -0 -0 -0 -0 -0 -0 -0 -0 -0 -0 -0 -0 -0 -0 0 0 nan
nan 0 0 0 0 0 0 0 0 0 -0 -0 -0 -0 0 -0 -0 -0 -0 -0 -0 -0 -0 -0 -0 -0 -1 -1 0 0 -0 -0 -0 -0 -0 -0 -0 -0 -1 0 0 -0 -1 -0 0 0 nan
nan 0 0 -0 -0 0 0 0 0 0 0 0 -0 -0 -0 -0 0 0 -0 -0 -0 -0 -0 -0 -0 -0 -1 -0 0 -0 -0 -0 0 -0 -0 -0 -0 -0 -0 -0 -0 -0 -0 -0 -0 0 nan
nan 0 -0 -0 0 0 0 0 0 0 0 0 -0 -0 -0 -0 0 0 -0 -0 -0 -0 -0 -0 -0 -0 -1 -0 -0 -0 -0 0 0 0 0 -0 -0 -0 -0 -1 -0 -0 -0 -0 0 -0 nan
nan 0 0 0 0 0 0 0 0 -0 -0 0 0 -0 -0 -0 -0 0 0 -0 -0 -0 -0 0 -0 -1 -1 -0 0 -0 0 0 -0 -0 -0 -0 -1 -1 -1 0 0 -1 -0 -0 0 -0 nan
nan -0 0 0 0 0 0 0 -0 -0 0 -0 -0 -0 -0 -0 0 0 0 -0 -0 0 -1 -1 -0 -0 -0 0 0 -0 0 -0 -0 -1 -1 -0 -0 -1 -0 -0 -0 -0 -0 -1 -1 0 nan
nan -0 0 -0 -0 -0 0 0 -0 -0 -0 -0 0 0 -0 -0 0 0 0 -0 -0 -0 -1 -1 -0 -0 -0 0 -0 -0 -0 -0 -1 -1 -0 0 -1 -0 -0 0 -0 -0 -0 -1 -0 0 nan
nan 0 0 0 0 -0 0 -0 -1 0 0 0 0 -0 -0 0 0 0 -0 -0 -0 -0 -1 -1 -0 -0 0 0 -1 -0 0 -0 -0 -0 0 -0 0 -0 -0 0 -0 -0 0 -0 -1 -1 nan
nan 0 0 0 0 -0 -0 0 0 0 -0 -0 -0 0 0 0 0 -0 -0 -0 -0 0 -1 -0 0 0 0 -0 -0 1 0 -1 -0 -0 -0 -0 0 0 -0 -0 0 -0 -0 0 -0 -0 nan
nan 0 0 0 0 -0 0 0 0 0 -0 -1 -0 0 0 0 -0 -0 -0 -0 -0 -0 -1 1 -1 -0 -0 -0 -0 0 0 0 -0 0 0 0 0 0 -0 -0 0 0 -0 -0 -0 -0 nan
nan 0 0 0 0 -0 0 0 0 0 0 -0 0 0 0 0 -0 -0 -0 0 -0 -0 -1 0 -0 -0 -0 -0 -0 -0 -0 -0 -0 0 0 0 0 -0 -0 0 0 -0 -0 -0 0 0 nan
nan 0 0 0 0 0 0 0 0 0 0 0 -0 0 0 0 -0 -0 0 0 -0 -1 0 0 0 -0 -0 -0 0 -0 -0 -0 -0 0 -0 0 0 0 0 -0 -0 -0 0 0 0 0 nan
nan -0 0 0 0 0 -0 0 0 0 0 0 0 -0 0 -0 0 0 0 -0 -1 -1 -0 -0 0 0 0 0 0 0 -0 -0 -0 -0 -0 0 0 0 -0 -0 -0 0 0 0 -0 -1 nan
nan -0 0 0 0 0 0 0 0 0 0 0 -0 -0 -0 -0 -0 0 0 -1 -1 -1 -0 0 0 0 0 0 0 0 -0 -0 0 0 0 -0 0 0 0 0 -0 0 0 -0 0 -0 nan
nan -0 -0 0 0 0 0 0 0 0 0 -0 -0 -0 -0 0 0 1 -0 -2 -1 0 0 0 -0 0 0 0 0 0 -0 0 0 0 -0 0 0 -0 0 0 0 -0 -0 0 0 0 nan
nan -0 -0 -0 0 0 0 0 0 0 0 -0 -0 -0 -0 -0 1 1 -0 -1 -1 0 0 -0 -0 0 0 0 -0 -0 0 0 0 0 0 0 -0 0 0 -0 -0 0 0 -0 0 1 nan
nan 0 -0 -0 -0 0 0 0 0 0 -0 -0 -0 -0 0 0 0 -0 -1 -1 -1 0 0 0 -0 0 0 0 1 0 0 0 0 0 0 0 0 -0 -1 -0 0 0 0 0 0 -0 nan
nan -1 -0 -0 -0 0 0 1 0 0 -0 -0 -0 0 0 1 -0 -1 -1 -0 -0 0 -0 0 0 0 0 0 0 0 0 -0 0 0 0 0 0 -0 -0 0 0 0 -0 0 0 0 nan
nan -1 -1 -0 -0 -0 0 1 0 -0 -0 0 0 -0 -0 -0 -2 -1 -0 -0 -0 0 0 0 0 0 0 0 -0 0 0 -0 0 0 -0 0 -0 0 -0 -1 -0 0 -0 0 1 0 nan
nan -1 -1 -0 -0 -0 0 0 -0 -0 0 0 -1 -1 -1 -1 -1 -0 0 0 0 -0 0 0 0 -0 0 0 0 0 -0 -0 0 0 -0 0 0 -0 -0 -0 -0 0 0 0 0 0 nan
nan -1 -1 -0 -0 -1 0 -0 1 0 1 0 -1 -1 -0 -1 -1 0 0 0 -1 -0 1 0 -0 -0 0 -0 -0 -0 0 0 -0 -0 0 0 0 0 -0 -1 0 0 -0 -0 0 0 nan
nan -0 -1 -0 -0 -0 -0 0 1 0 1 -0 -1 0 -0 -0 -1 -0 -1 -0 0 1 0 -0 -0 0 0 0 0 0 -0 0 0 0 0 0 0 -0 -1 -1 0 1 -0 -1 -1 -0 nan
nan 0 -1 -1 -0 -1 -1 1 1 0 -0 -1 0 0 -1 -0 -0 -1 -1 -0 0 0 -0 -0 0 0 -0 0 0 0 0 0 0 -0 0 0 0 0 -0 0 -0 -1 -0 -0 0 -0 nan
nan -0 -1 -1 -1 -0 -0 0 -0 -0 0 -0 0 -0 -0 -0 0 0 0 0 -0 -0 -0 0 0 0 0 -0 -0 0 -0 -0 -0 -0 -0 0 0 0 -0 -1 -1 -1 -0 0 0 -1 nan
nan -0 -1 -1 -1 -0 -0 -0 0 0 0 0 0 1 0 -0 0 1 1 1 0 0 0 0 0 0 0 -0 0 -0 -0 -1 0 0 0 1 0 0 0 0 -1 -1 0 -0 0 0 nan
nan -0 -1 -1 -1 -1 -0 -0 0 -0 -0 -0 0 1 1 0 0 1 1 0 0 -0 -0 0 -0 -0 -0 0 -0 -0 -1 -0 0 0 0 0 0 0 -0 -1 -1 -0 -0 -0 0 0 nan
nan -1 -0 -1 -1 -1 -0 0 0 -0 -0 -0 0 0 1 0 1 1 1 1 -0 -0 0 0 -0 -0 -0 -0 -0 -0 -0 -0 -0 -0 -0 -0 -0 -0 -0 0 -2 -0 -0 -0 0 0 nan
nan nan nan nan nan nan nan nan nan nan nan nan nan nan nan nan nan nan nan nan nan nan nan nan nan nan nan nan nan nan nan nan nan nan nan nan nan nan nan nan nan nan nan nan nan nan nan
Wind_Speed
24 24 23 23 23 23 23 22 21 21 22 21 21 19 19 17 18 19 19 19 21 17 16 17 20 19 17 9 9 10 7 8 6 8 10 10 8 7 4 5 6 7 1 3 5 7 9
28 27 26 26 26 26 26 25 25 25 25 24 23 21 22 21 20 21 19 17 19 17 16 17 19 17 11 16 6 8 5 3 2 5 8 9 8 7 5 6 8 4 9 11 10 10 7
31 30 29 29 31 30 28 28 27 27 27 24 24 23 23 23 20 20 18 15 19 17 17 20 18 17 12 17 8 5 5 3 2 2 5 7 7 8 7 7 3 8 11 9 9 5 3
34 31 29 31 34 32 30 29 29 31 29 21 21 20 20 21 20 19 18 19 20 19 16 18 16 13 10 11 10 11 7 5 2 2 2 6 7 7 7 6 9 10 11 12 12 7 6
27 32 33 35 33 38 33 30 30 25 22 22 22 21 21 22 22 21 20 20 20 18 17 18 11 4 15 9 6 8 10 6 4 3 4 5 6 10 8 11 10 12 10 9 7 8 2
25 24 23 22 22 22 21 22 21 16 16 19 20 21 17 17 17 16 16 17 16 16 17 14 10 7 14 8 5 7 8 7 5 6 9 7 8 10 12 10 10 13 10 9 10 8 8
25 25 26 28 31 30 26 23 21 25 25 22 20 21 19 15 14 10 10 8 11 8 11 13 4 12 4 3 6 9 9 7 8 10 12 13 8 14 15 7 8 10 13 15 14 11 13
21 21 21 19 22 27 27 27 28 24 24 24 22 20 18 16 11 9 8 5 7 7 13 19 21 23 22 13 9 14 10 9 14 13 12 8 16 9 4 5 9 11 13 14 11 4 6
18 19 19 18 18 19 22 22 24 24 25 26 23 20 16 14 10 12 12 9 6 5 11 19 23 23 22 20 21 22 16 14 15 15 14 15 12 4 6 9 9 10 12 10 12 14 12
22 20 20 20 18 17 18 19 20 20 23 21 20 19 16 11 12 11 12 9 2 6 7 10 8 7 14 12 10 23 15 19 14 15 17 13 5 6 10 11 6 10 6 7 11 11 11
28 28 26 23 20 17 19 20 21 20 22 20 20 20 19 22 8 9 8 13 7 2 6 6 10 7 9 16 9 10 10 12 15 11 7 3 9 9 11 9 1 7 7 10 13 14 16
25 24 25 23 20 17 19 23 23 23 22 19 19 21 20 22 21 9 12 8 8 5 10 7 8 10 13 14 7 9 10 8 3 6 10 8 2 5 9 3 8 4 12 13 13 12 11
27 26 25 24 22 19 18 23 22 20 19 19 20 20 22 24 21 15 12 13 6 10 2 8 8 11 14 9 9 11 11 11 8 8 12 11 12 6 7 10 8 11 13 7 6 9 10
28 28 26 26 24 22 21 21 22 20 17 17 18 19 23 29 21 18 22 10 13 10 19 2 4 11 13 12 11 10 11 11 9 8 8 9 9 13 9 5 6 6 6 6 9 9 12
30 30 28 27 27 25 24 23 23 21 17 16 15 17 23 27 27 24 22 12 12 21 7 10 9 12 11 13 5 11 13 12 9 11 7 4 7 5 5 2 3 1 7 7 7 13 12
30 32 32 30 28 28 26 25 24 22 17 16 15 18 23 27 25 29 8 22 17 6 2 5 16 12 16 15 10 11 13 5 7 7 4 2 5 8 7 6 10 9 6 5 5 5 11
29 30 33 32 32 31 30 28 26 22 19 17 15 10 15 25 23 13 6 12 20 8 8 9 14 11 13 14 16 15 13 7 6 6 8 5 4 7 6 9 11 7 11 10 9 9 12
32 34 32 34 32 32 33 30 30 25 21 22 16 7 17 28 10 6 10 13 7 13 11 6 5 7 10 8 13 11 9 8 6 9 8 4 3 8 13 7 4 8 14 13 9 15 12
31 32 35 35 34 34 34 34 33 29 27 26 9 11 19 30 8 6 9 16 9 13 14 9 8 5 1 7 4 7 8 6 6 7 2 6 6 7 12 10 7 8 7 4 8 9 14
31 32 33 34 38 35 35 38 37 33 31 28 9 4 6 18 17 18 19 16 12 16 13 8 6 6 7 6 5 9 9 6 7 5 6 1 7 9 9 11 7 9 11 11 12 8 14
35 30 32 33 35 39 37 40 41 36 36 34 15 9 14 7 12 9 15 11 17 13 14 15 8 11 10 8 10 9 9 9 9 9 6 4 8 10 12 13 14 16 16 16 18 18 19
36 37 33 33 36 43 39 43 45 42 38 40 16 11 20 13 29 18 11 13 21 22 16 15 13 15 12 12 11 10 13 10 10 12 10 9 6 4 8 13 16 19 14 18 22 22 23
35 34 36 34 36 38 41 41 50 46 44 18 24 24 9 19 19 14 12 11 17 12 8 13 15 11 11 14 14 1 3 3 3 8 9 9 6 8 13 10 10 14 8 16 18 17 18
31 34 35 36 36 43 40 43 45 48 49 27 22 21 14 8 13 20 24 21 12 17 10 11 11 12 5 7 6 4 7 9 12 12 12 9 10 9 10 11 15 10 6 8 12 15 18
30 32 34 35 35 41 42 43 52 47 49 36 25 20 14 7 13 12 11 18 14 12 9 10 8 3 8 8 5 5 7 9 15 18 17 16 12 8 10 10 14 12 16 14 7 16 17
28 32 34 34 35 41 38 48 42 46 50 42 25 19 15 11 9 12 13 15 7 10 9 7 8 10 8 6 5 9 7 10 6 5 13 17 15 11 10 12 10 5 2 4 8 14 7
26 27 34 35 38 42 43 47 49 48 45 43 33 30 15 7 7 20 13 16 13 11 8 13 14 8 7 6 7 8 10 6 8 10 7 11 13 14 12 12 12 10 4 3 7 3 3
29 30 33 35 37 41 38 46 51 46 46 45 29 27 19 6 10 13 12 21 16 19 8 15 9 8 9 8 7 7 6 8 11 12 11 12 10 10 12 15 20 4 4 7 8 9 11
31 35 31 35 43 38 35 46 50 46 43 42 28 26 24 14 7 9 10 11 15 14 7 17 3 15 11 8 7 6 6 6 11 10 13 12 11 9 8 5 2 4 8 16 21 19 17
Wind_Direction
246 246 248 252 253 256 259 261 265 267 270 271 275 280 285 288 292 296 304 305 314 316 321 329 332 332 330 305 291 290 303 339 356 352 351 346 353 325 317 319 309 270 21 273 263 261 260
249 251 252 255 256 257 260 264 265 266 266 270 273 270 276 280 282 285 293 294 305 311 319 324 326 326 320 286 288 283 307 353 354 353 340 356 349 335 296 300 291 338 291 279 267 263 240
248 251 249 252 255 256 257 263 267 269 267 263 267 271 273 273 273 282 288 284 296 296 307 319 318 322 293 262 271 263 286 228 315 24 336 331 328 314 326 277 271 281 278 236 231 230 218
258 255 254 255 247 245 252 260 264 263 252 250 261 267 267 275 276 276 279 285 289 286 293 310 314 313 267 270 251 259 232 221 245 308 329 316 310 294 275 295 254 258 247 270 154 177 142
247 251 253 254 257 257 261 261 248 243 253 258 275 267 268 273 273 276 277 280 281 278 290 296 310 277 270 253 253 228 202 212 229 274 279 288 286 274 252 245 261 206 272 223 200 171 252
249 248 244 244 242 241 240 239 248 249 260 275 276 271 272 275 278 275 274 281 277 276 288 282 257 260 243 254 198 183 183 191 247 271 275 248 254 253 238 249 268 333 301 270 260 160 196
256 256 257 260 259 258 258 255 251 263 275 265 263 265 266 269 265 274 280 266 284 245 225 246 293 253 231 217 234 215 207 221 251 253 265 265 267 267 293 345 312 291 280 278 285 303 312
251 256 262 267 265 259 258 255 258 260 263 262 261 252 257 257 248 246 233 216 273 310 288 265 258 253 249 259 265 232 218 230 226 253 260 250 249 280 33 267 266 265 268 272 275 268 275
259 253 257 258 260 257 253 255 254 250 255 259 254 254 249 245 236 232 232 241 264 304 270 274 252 243 240 234 243 246 208 239 246 252 248 250 288 99 273 247 240 245 262 289 295 301 284
257 264 260 257 256 263 252 248 251 251 256 255 245 245 238 219 230 233 223 219 236 10 279 253 208 243 210 210 247 229 237 240 237 247 244 255 235 235 239 249 251 267 59 281 282 281 279
254 259 258 256 253 257 254 246 247 255 262 259 245 231 223 213 244 209 238 230 236 211 276 98 135 150 168 189 125 182 200 197 238 212 219 185 191 202 241 267 248 282 336 280 277 275 280
250 253 246 246 245 246 261 250 249 253 260 265 240 220 210 211 218 230 219 205 170 222 240 184 154 182 172 208 200 142 168 212 289 225 230 274 194 253 267 250 242 301 257 257 242 259 267
249 250 244 241 242 246 258 243 245 250 255 265 239 219 206 201 214 215 186 162 211 228 111 177 187 177 191 181 173 181 176 185 189 196 212 201 216 203 240 234 199 246 270 285 245 226 258
250 247 245 241 238 239 244 249 244 243 255 257 229 218 208 202 199 191 173 184 231 237 225 40 208 183 197 165 190 194 194 204 220 248 279 227 192 192 174 266 322 286 310 286 297 286 308
251 246 243 243 238 237 238 242 246 241 243 243 217 218 210 202 201 200 189 208 223 237 251 212 214 206 190 179 226 196 216 223 216 207 225 244 231 121 178 241 255 149 257 15 309 287 276
252 248 245 243 242 235 232 232 236 239 234 231 210 211 211 201 203 196 212 220 225 235 206 232 209 207 203 194 196 196 193 216 200 256 243 192 246 213 168 257 243 256 346 279 218 268 282
251 248 246 242 240 234 230 228 227 227 224 217 205 205 215 199 195 190 219 222 233 184 192 207 216 221 231 194 203 205 207 144 195 177 211 181 195 173 207 223 263 210 225 240 260 271 287
252 249 247 242 237 234 228 225 220 220 214 207 210 208 196 192 184 186 211 213 304 198 194 192 267 232 229 162 212 215 215 183 185 175 197 175 226 250 242 222 296 291 284 279 261 271 276
253 250 246 243 237 231 229 221 217 213 209 192 204 194 184 180 200 213 221 229 226 209 196 184 184 215 176 185 180 192 207 91 171 200 214 170 225 252 234 207 215 254 234 276 306 298 267
251 249 244 238 238 232 229 219 212 209 206 196 189 184 160 197 232 227 199 215 205 201 213 189 172 182 174 170 191 195 186 166 188 176 89 86 251 255 272 309 311 275 268 244 252 254 275
250 250 246 241 240 231 227 218 209 203 199 200 211 211 185 182 216 222 211 209 206 193 213 203 187 207 196 207 205 207 197 157 189 143 205 245 254 269 275 285 284 277 270 268 261 263 259
250 250 246 244 237 231 223 219 209 200 197 200 189 225 193 213 208 210 200 211 211 211 185 204 216 205 210 221 210 214 209 195 199 190 226 233 248 283 285 275 269 268 263 264 260 266 270
249 249 243 241 240 231 229 226 206 195 193 199 205 207 234 216 184 187 203 197 216 168 215 232 216 204 218 229 245 170 288 252 221 217 210 222 226 236 269 271 280 260 236 242 263 264 266
257 243 249 241 238 239 229 219 201 200 196 197 193 187 211 218 211 202 204 205 202 198 171 187 196 199 123 117 114 173 228 233 236 230 242 232 234 250 271 287 273 277 218 246 256 266 270
250 245 249 246 237 234 227 218 205 207 197 198 185 199 205 203 203 197 202 210 191 187 182 193 190 179 139 165 200 214 211 227 233 233 230 228 241 254 252 254 267 264 249 251 308 296 293
254 249 245 254 238 222 226 211 204 203 197 197 194 185 210 219 204 181 173 166 171 186 165 168 134 150 180 219 227 228 223 215 190 190 213 221 224 237 233 249 266 246 193 115 313 283 44
260 254 247 247 226 214 221 209 195 199 195 197 196 196 180 203 209 177 177 176 168 202 202 188 174 182 193 202 223 233 234 237 236 212 172 206 211 222 236 256 263 278 68 21 253 344 317
262 259 257 231 211 214 209 198 192 190 195 192 195 200 182 124 151 183 163 168 183 194 181 150 160 202 189 220 226 220 244 235 231 256 224 194 205 220 234 251 262 257 113 235 333 300 288
268 267 236 218 203 197 199 196 192 184 193 196 170 184 178 134 164 134 153 155 189 202 197 178 290 182 191 207 222 238 222 232 236 242 228 251 229 244 233 245 61 210 254 277 288 293 301
Height
1543 1544 1545 1548 1549 1550 1551 1551 1552 1552 1554 1553 1553 1552 1553 1550 1550 1550 1548 1547 1545 1544 1541 1540 1538 1535 1533 1533 1527 1522 1521 1520 1522 1523 1522 1518 1514 1510 1504 1506 1506 1501 1501 1502 1502 1503 1504
1537 1539 1540 1543 1544 1546 1546 1547 1547 1548 1549 1549 1550 1549 1549 1546 1546 1548 1545 1544 1543 1542 1540 1538 1536 1534 1535 1532 1525 1524 1521 1521 1522 1522 1523 1521 1518 1515 1510 1507 1506 1505 1503 1500 1499 1500 1500
1530 1532 1534 1537 1539 1540 1541 1542 1542 1544 1544 1545 1546 1545 1544 1545 1542 1544 1542 1542 1540 1539 1538 1536 1534 1532 1531 1528 1524 1523 1520 1522 1521 1519 1523 1522 1520 1517 1513 1505 1508 1506 1502 1491 1495 1496 1497
1525 1526 1528 1529 1531 1532 1534 1536 1537 1540 1539 1539 1541 1542 1541 1541 1540 1540 1540 1539 1539 1537 1535 1533 1531 1530 1527 1522 1521 1520 1520 1520 1519 1520 1519 1522 1521 1518 1514 1510 1505 1500 1495 1491 1482 1495 1499
1518 1521 1522 1523 1523 1527 1527 1531 1532 1534 1534 1536 1537 1537 1537 1538 1536 1537 1537 1536 1536 1534 1533 1531 1529 1528 1524 1517 1517 1518 1518 1519 1519 1519 1519 1516 1519 1516 1512 1505 1495 1488 1488 1479 1480 1489 1492
1513 1515 1517 1518 1519 1521 1522 1525 1528 1529 1532 1532 1533 1535 1533 1534 1533 1533 1533 1534 1532 1531 1528 1527 1526 1530 1518 1517 1516 1516 1515 1517 1519 1519 1518 1515 1513 1509 1499 1496 1493 1488 1484 1479 1483 1483 1491
1508 1509 1511 1512 1514 1517 1517 1520 1522 1525 1526 1527 1527 1529 1531 1530 1530 1530 1531 1533 1534 1528 1526 1521 1519 1515 1514 1515 1516 1515 1513 1515 1516 1516 1512 1507 1509 1498 1486 1494 1499 1498 1495 1490 1483 1482 1489
1502 1504 1506 1507 1509 1511 1511 1513 1516 1518 1522 1523 1523 1524 1527 1529 1528 1529 1529 1531 1531 1530 1521 1516 1512 1513 1513 1514 1513 1512 1514 1514 1510 1509 1502 1508 1501 1492 1499 1502 1503 1498 1495 1490 1483 1486 1496
1499 1498 1502 1502 1505 1505 1506 1507 1510 1513 1516 1518 1519 1521 1525 1526 1526 1527 1528 1529 1529 1528 1521 1507 1504 1504 1506 1511 1507 1506 1508 1509 1507 1505 1501 1502 1492 1500 1505 1499 1498 1492 1491 1491 1492 1486 1484
1493 1495 1496 1499 1500 1501 1502 1502 1505 1507 1511 1512 1513 1518 1522 1525 1529 1524 1526 1527 1528 1529 1517 1493 1496 1495 1500 1504 1501 1500 1502 1507 1504 1501 1497 1494 1492 1499 1500 1499 1496 1493 1488 1496 1493 1492 1490
1486 1490 1493 1494 1496 1497 1498 1497 1500 1504 1507 1508 1509 1511 1516 1520 1523 1523 1526 1525 1527 1530 1528 1484 1491 1494 1496 1498 1495 1498 1501 1502 1498 1497 1500 1491 1497 1498 1500 1496 1498 1493 1496 1493 1491 1489 1484
1480 1482 1486 1488 1491 1492 1493 1495 1496 1498 1502 1505 1506 1508 1511 1515 1520 1522 1520 1526 1529 1527 1510 1485 1487 1489 1493 1495 1493 1495 1498 1501 1497 1496 1496 1491 1499 1498 1497 1499 1499 1497 1493 1486 1481 1482 1488
1474 1477 1480 1483 1484 1488 1490 1489 1493 1494 1497 1500 1503 1504 1506 1513 1515 1516 1520 1526 1528 1510 1484 1479 1485 1486 1483 1490 1492 1494 1494 1495 1492 1499 1494 1491 1494 1495 1500 1497 1496 1495 1488 1489 1483 1480 1476
1468 1471 1473 1477 1480 1482 1484 1487 1490 1491 1493 1497 1498 1500 1502 1507 1511 1513 1517 1522 1515 1481 1478 1481 1481 1483 1483 1485 1489 1492 1492 1490 1490 1489 1486 1489 1496 1492 1494 1491 1490 1490 1493 1496 1499 1489 1479
1461 1464 1466 1471 1474 1476 1480 1483 1486 1489 1490 1493 1496 1498 1498 1501 1507 1510 1513 1508 1486 1481 1476 1476 1484 1483 1480 1483 1487 1489 1488 1487 1482 1489 1493 1490 1491 1492 1493 1495 1494 1489 1496 1488 1496 1492 1494
1453 1456 1459 1463 1467 1470 1475 1478 1482 1485 1488 1491 1493 1496 1494 1497 1502 1506 1507 1490 1482 1482 1482 1485 1481 1478 1478 1485 1490 1488 1485 1483 1488 1493 1492 1490 1499 1492 1492 1497 1494 1495 1490 1500 1495 1509 1496
1446 1449 1452 1456 1460 1463 1468 1473 1477 1480 1485 1490 1492 1493 1488 1494 1498 1502 1494 1482 1481 1483 1485 1484 1479 1479 1477 1482 1484 1483 1478 1488 1491 1495 1494 1492 1501 1492 1496 1494 1489 1487 1491 1489 1490 1491 1495
1438 1441 1445 1448 1452 1456 1461 1466 1471 1476 1481 1485 1487 1484 1485 1488 1494 1496 1490 1484 1482 1477 1484 1484 1481 1480 1478 1477 1482 1482 1482 1484 1491 1494 1493 1493 1492 1496 1487 1482 1485 1490 1491 1491 1497 1496 1485
1430 1432 1436 1440 1444 1448 1452 1458 1464 1470 1475 1480 1480 1481 1482 1486 1485 1483 1482 1484 1485 1481 1479 1482 1482 1485 1485 1484 1490 1486 1484 1493 1494 1493 1491 1495 1493 1496 1485 1484 1488 1491 1486 1490 1493 1495 1498
1421 1424 1427 1430 1435 1440 1444 1448 1455 1462 1469 1476 1477 1474 1478 1479 1477 1473 1475 1480 1480 1479 1477 1482 1482 1485 1484 1483 1486 1487 1490 1495 1496 1494 1499 1500 1495 1494 1492 1484 1485 1489 1485 1487 1490 1499 1494
1413 1415 1418 1420 1425 1431 1435 1439 1445 1454 1460 1470 1468 1462 1462 1469 1472 1473 1470 1471 1472 1474 1478 1481 1482 1481 1481 1485 1483 1485 1487 1491 1494 1498 1499 1499 1498 1494 1490 1489 1490 1489 1489 1490 1488 1489 1491
1403 1406 1409 1412 1415 1420 1425 1427 1436 1445 1454 1458 1458 1456 1454 1453 1464 1469 1469 1470 1472 1471 1472 1476 1475 1477 1479 1480 1482 1484 1483 1486 1487 1491 1495 1495 1499 1502 1503 1495 1492 1490 1491 1489 1488 1487 1485
1394 1397 1399 1403 1406 1410 1416 1421 1425 1435 1444 1445 1448 1453 1454 1449 1454 1465 1464 1465 1465 1469 1475 1478 1476 1476 1478 1479 1481 1482 1484 1485 1487 1489 1492 1493 1495 1495 1491 1482 1480 1482 1484 1484 1479 1477 1475
1385 1388 1390 1393 1397 1401 1406 1412 1417 1425 1433 1438 1443 1449 1450 1444 1446 1451 1457 1462 1469 1472 1473 1477 1478 1476 1479 1482 1486 1490 1492 1491 1491 1490 1490 1489 1493 1493 1489 1486 1490 1471 1470 1470 1471 1469 1466
1376 1378 1380 1383 1387 1392 1396 1403 1410 1418 1428 1433 1441 1445 1445 1444 1442 1447 1452 1453 1463 1465 1471 1473 1475 1477 1480 1485 1486 1485 1485 1485 1484 1485 1486 1490 1491 1491 1488 1479 1469 1465 1462 1463 1465 1468 1464
1368 1369 1371 1374 1377 1383 1388 1393 1402 1411 1421 1431 1438 1442 1446 1445 1444 1449 1454 1458 1464 1466 1471 1476 1479 1480 1483 1482 1482 1476 1472 1469 1466 1472 1476 1483 1487 1488 1485 1483 1476 1460 1461 1465 1471 1466 1467
1360 1360 1362 1362 1367 1376 1382 1386 1397 1405 1417 1427 1433 1439 1445 1447 1447 1452 1457 1460 1466 1473 1470 1473 1478 1482 1484 1479 1479 1472 1468 1462 1465 1466 1476 1478 1479 1481 1480 1477 1465 1459 1463 1468 1474 1471 1473
1351 1350 1350 1353 1359 1368 1377 1381 1391 1402 1413 1421 1429 1436 1443 1448 1452 1454 1455 1455 1464 1464 1464 1469 1478 1479 1480 1479 1473 1466 1465 1460 1463 1460 1457 1465 1470 1471 1473 1472 1468 1458 1465 1469 1465 1467 1469
1341 1339 1338 1344 1354 1364 1371 1379 1388 1398 1410 1417 1427 1435 1443 1446 1452 1452 1455 1457 1463 1466 1466 1469 1466 1466 1470 1471 1465 1461 1459 1460 1458 1460 1456 1459 1456 1458 1457 1456 1459 1462 1463 1464 1464 1463 1466